Погода в Мерауке

Индонезия     8°30′06″S   140°25′29″E
темп.,
°C
ветер,
м/с
пор.,
м/с
влажн.,
%
обл.,
%
осадки,
мм/ч
давл.,
гПа
погр.,
м
25 января, пн
пн2500:00+25ссз2495100 0.1 1007176
03:00+24сз3894100 0.1 1005343
06:00+24ссз379668 0.0 1007335
09:00+29сз597278 0.0 10081050
12:00+29зсз5875100 1.8 10051137
15:00+30з5866100 2.3 10031252
18:00+27сз2487100 0.3 1004209
21:00+25сз1291100 0.9 1006107
26 января, вт
вт2600:00+24ссз2393100 0.0 100596
03:00+24ссз269568 0.0 1003213
06:00+24ссз369438 0.0 1005266
09:00+29сз477369 0.0 1006881
12:00+32з5759100 0.0 10031244
15:00+31з5765100 0.4 1000881
18:00+27зюз3789100 4.3 1002203
21:00+26зсз2591100 9.9 1004177
27 января, ср
ср2700:00+25сз3694100 0.0 1004280
03:00+25сз3693100 0.0 1002297
06:00+25ссз3795100 0.0 1004292
09:00+30сз597284 0.0 10051030
12:00+30зсз477849 3.1 10021006
15:00+28зсз598675 13.9 1001770
18:00+26зсз41093100 5.8 1003689
21:00+26зсз51089100 8.2 1004764
28 января, чт
чт2800:00+25сз51292100 6.3 1003831
03:00+25сз51291100 6.6 1002927
06:00+25ссз4119251 0.5 1004749
09:00+29сз7127359 1.6 10051256
12:00+29зсз61083100 3.7 10031095
15:00+27зсз51089100 9.0 1002899
18:00+26зсз51192100 5.0 1003647
21:00+25сз41192100 8.1 1005618
29 января, пт
пт2900:00+25сз51291100 1.3 1004821
03:00+25сз51291100 2.6 1003852
06:00+24ссз41292100 0.9 1005851
09:00+25сз51190100 2.8 1006959
12:00+29сз71378100 2.1 10041373
15:00+30зсз81468100 3.2 10011527
18:00+27сз51078100 0.4 1003954
21:00+25сз4119097 2.2 1005783